Wind_Speed
8 8 6 4 4 3 4 5 7 7 8 8 9 10 11 11 12 12 12 12 12 11 10 10 10 10 10 10 10 10 11 11 11 10 10 10 9 8 7 5 4 4 4
7 5 3 2 2 3 4 6 8 8 8 8 9 9 10 10 11 12 12 13 12 12 10 9 9 8 8 8 9 9 9 9 9 9 9 9 8 8 7 6 5 4 3
5 4 2 0 2 3 5 6 8 9 9 9 9 9 9 10 10 11 12 12 13 12 12 10 9 8 7 7 8 8 8 8 8 8 8 8 8 7 7 6 6 4 3
4 3 1 1 2 4 5 7 8 9 9 9 9 9 9 9 9 10 11 12 13 13 13 12 10 9 8 7 7 8 8 8 8 7 7 7 8 7 7 7 7 4 3
4 3 2 1 2 4 5 7 8 9 9 10 9 9 8 8 9 9 10 11 12 13 13 12 11 10 9 8 8 8 8 8 8 7 7 6 7 7 7 8 8 5 4
5 4 3 3 3 4 5 6 7 8 9 10 9 9 8 9 9 9 10 10 11 12 12 12 11 11 10 9 9 8 8 8 8 7 7 7 7 7 7 8 9 6 5
7 7 6 6 6 5 6 6 7 8 8 9 9 9 9 9 9 9 10 11 11 11 11 11 11 11 10 10 9 9 9 8 8 7 7 7 7 7 7 7 8 7 6
10 11 10 10 9 8 8 8 8 8 8 9 9 10 10 10 10 11 11 11 11 11 11 11 10 10 10 10 10 10 9 9 9 8 7 7 7 7 7 7 7 7 7
13 14 13 13 12 12 11 10 10 9 9 10 10 11 12 12 13 13 13 13 12 12 12 11 11 10 10 10 11 11 10 10 9 9 8 9 9 8 8 8 8 8 8
14 14 14 14 14 14 13 13 12 11 11 11 12 13 14 14 15 15 15 15 14 14 14 13 12 11 11 11 11 11 11 11 10 10 9 10 10 9 9 9 9 9 9
14 13 14 15 15 15 15 14 14 13 13 13 14 15 15 16 16 16 16 16 16 16 15 15 15 14 13 12 12 12 12 12 12 11 11 11 11 10 10 10 10 10 10
14 13 14 15 15 16 16 16 15 15 16 16 16 17 18 18 17 17 17 18 18 18 18 17 17 17 16 15 14 13 14 13 13 12 12 12 12 12 12 12 12 12 12
14 14 14 15 16 17 17 17 17 17 18 18 19 20 20 20 20 20 20 20 20 20 20 20 19 20 20 19 18 17 17 16 15 14 13 13 13 13 13 13 13 13 13
18 18 18 18 19 20 20 20 20 20 21 22 22 23 23 24 24 24 24 24 24 24 24 23 22 22 23 23 22 22 21 20 19 17 16 16 15 15 15 15 15 15 14
23 23 23 23 23 24 24 24 24 25 25 26 26 27 27 28 28 28 29 29 29 28 28 28 27 26 26 26 26 25 25 24 23 21 20 19 19 17 17 17 17 17 16
28 28 27 27 28 28 28 29 29 29 29 30 30 31 32 33 33 33 34 34 34 33 33 32 31 31 30 29 29 29 28 27 27 26 24 23 22 21 21 20 19 19 19
33 33 32 32 32 32 33 33 34 34 34 34 35 35 35 36 37 38 39 39 39 38 38 37 36 35 34 33 32 32 31 31 31 30 29 27 26 25 24 24 23 22 22
39 38 37 38 37 37 38 38 38 38 38 38 38 39 39 39 41 41 42 42 43 42 42 41 40 39 38 37 36 35 34 34 33 33 32 31 30 29 28 27 26 25 25
43 43 43 43 43 42 43 42 42 41 41 42 42 42 42 43 43 44 44 45 46 45 44 45 44 42 40 40 39 38 37 36 35 35 35 34 33 33 32 30 29 28 28
47 46 46 46 47 46 45 44 44 43 43 43 44 45 45 44 45 45 47 48 49 48 47 45 44 43 43 42 41 39 38 37 36 36 36 36 36 36 35 34 32 30 30
45 45 45 45 45 45 44 43 43 43 43 43 44 45 46 47 47 46 48 49 50 50 48 45 44 44 45 44 42 41 40 39 38 37 37 37 37 37 37 36 34 32 32
41 41 41 42 42 42 42 42 42 42 42 43 44 45 46 47 47 48 48 49 50 49 48 46 45 46 45 43 42 41 41 39 39 38 38 38 38 37 36 36 36 34 33
40 40 40 40 41 42 42 42 42 43 43 43 44 45 46 47 49 49 49 49 49 48 46 45 44 44 44 44 44 43 41 39 38 37 38 38 37 36 35 35 34 33 32
40 40 40 41 41 42 43 43 44 44 44 45 46 48 48 49 50 50 47 48 48 46 45 44 44 43 42 42 41 41 40 38 37 35 36 37 36 35 34 34 33 32 30
38 39 39 40 41 42 43 44 45 46 47 47 48 50 50 51 51 50 48 48 48 47 46 44 44 42 41 39 39 40 40 38 37 35 34 34 35 34 33 33 31 30 28
36 37 38 38 40 41 43 44 46 47 48 49 50 51 52 52 52 52 51 51 49 48 46 44 42 40 39 37 37 38 38 37 37 36 34 33 32 33 32 31 29 28 27
Wind_Direction
137 137 130 114 98 73 35 11 3 3 10 15 21 25 29 32 34 33 33 32 32 32 32 33 33 33 33 32 29 27 26 26 25 25 26 30 32 32 30 27 20 21 24
144 145 139 115 72 39 15 360 352 351 353 360 6 11 15 20 23 24 25 25 24 23 21 20 21 21 21 22 21 20 19 18 18 18 17 19 22 24 23 16 5 355 343
157 155 151 5 350 357 3 0 354 350 349 351 355 360 4 8 11 16 19 20 19 17 14 11 8 7 6 6 8 10 12 12 11 11 11 9 10 12 14 9 358 346 334
174 178 186 303 339 351 1 5 0 355 352 351 351 353 355 359 1 5 11 14 14 14 12 7 4 0 356 352 352 355 360 2 3 2 3 3 359 0 1 359 350 333 323
195 201 211 273 334 349 356 1 360 355 351 350 348 348 349 351 353 356 358 3 6 8 9 7 2 358 354 348 343 343 347 350 352 353 352 354 350 356 356 356 352 324 309
226 237 250 271 301 324 336 345 349 349 347 345 344 342 341 342 343 346 347 349 354 359 3 5 3 358 353 347 340 336 336 340 343 344 343 343 342 347 348 349 354 340 305
250 258 268 277 286 296 309 322 331 335 334 334 334 333 331 331 333 334 337 338 341 347 352 358 0 359 356 350 342 334 329 329 332 334 335 335 331 332 335 338 343 346 321
262 265 272 278 282 286 292 301 310 316 319 318 317 319 320 321 323 324 325 326 327 332 337 343 349 352 352 350 343 336 328 324 322 322 325 323 321 322 322 324 330 334 327
269 270 273 277 280 282 285 289 294 300 303 304 304 306 310 311 312 314 313 313 313 316 320 324 330 336 340 342 341 337 332 324 322 320 320 315 315 316 315 315 315 317 318
275 276 277 277 280 281 282 283 285 288 290 291 293 296 299 302 304 306 306 305 303 304 306 307 310 315 321 326 330 333 331 329 324 320 318 313 312 312 310 310 310 307 306
280 279 280 281 282 283 283 283 282 283 284 284 285 288 291 294 298 300 301 301 300 299 298 296 297 300 303 308 314 318 321 323 323 322 316 311 310 309 308 306 305 304 301
287 285 283 283 283 284 285 284 283 283 282 281 281 283 287 290 293 295 297 299 298 296 294 291 289 290 292 294 298 301 304 309 312 313 311 309 309 308 307 306 302 300 297
291 291 291 289 287 287 287 286 286 285 285 284 283 284 287 288 290 291 293 295 296 296 294 291 287 285 286 286 288 289 292 297 300 303 306 309 310 308 307 305 302 299 296
291 292 293 292 291 290 290 288 288 289 289 288 288 289 289 290 291 291 291 292 292 292 291 290 287 285 284 282 282 283 284 287 290 292 296 298 302 304 303 304 301 297 294
288 290 292 292 291 291 291 290 290 290 290 290 289 289 291 291 291 291 291 291 291 289 288 288 287 285 283 282 280 279 279 281 283 285 288 290 294 297 299 299 300 297 292
284 285 287 288 289 290 290 290 290 290 290 290 291 290 291 292 292 292 292 292 291 290 288 287 285 284 283 281 279 277 276 277 279 281 282 284 287 290 293 294 294 294 293
282 283 284 285 286 287 288 289 289 289 289 289 289 289 290 291 291 292 292 292 292 292 290 288 285 284 282 280 278 276 276 275 277 278 279 281 282 284 287 289 291 291 291
283 283 284 285 285 286 287 287 288 288 287 287 288 289 289 289 290 290 290 291 290 290 289 288 287 286 285 281 277 275 275 275 275 277 277 279 281 283 284 285 287 287 287
283 284 285 286 286 286 286 286 286 286 286 286 286 286 286 287 287 287 287 288 287 288 288 287 286 284 284 282 279 276 274 274 275 275 276 278 279 282 284 284 285 285 284
282 282 283 284 284 284 284 284 284 284 284 284 284 285 285 285 285 286 285 286 286 286 287 286 286 285 284 282 279 278 277 275 275 273 275 278 280 283 284 284 284 283 283
281 281 281 281 281 281 282 281 281 281 281 282 283 283 284 284 284 285 284 285 285 284 285 287 287 288 286 283 281 280 278 275 274 273 274 277 280 283 285 286 286 285 283
280 280 280 279 279 278 279 278 278 278 278 279 281 281 281 282 283 283 284 284 287 286 285 287 288 288 286 282 280 280 278 275 275 275 275 275 277 280 282 284 286 287 285
281 280 280 279 278 277 277 277 278 277 278 278 279 280 280 279 281 283 283 284 286 286 287 287 288 289 286 282 277 277 276 274 274 274 275 276 277 279 282 285 286 287 286
282 281 280 279 278 278 278 278 277 278 278 278 278 278 278 278 279 280 281 283 285 286 287 286 286 289 286 282 276 274 273 271 272 271 271 274 277 280 282 284 286 286 285
281 280 279 278 277 277 278 278 278 278 278 278 278 278 278 278 279 280 282 283 283 284 286 286 285 286 286 280 274 272 269 267 269 270 269 271 277 280 282 283 283 284 283
282 281 279 278 277 277 278 278 278 279 279 279 279 278 278 278 278 279 280 281 282 282 283 283 284 285 284 280 275 271 266 265 267 270 270 271 274 277 279 280 281 282 283
Height
5926 5926 5926 5926 5926 5926 5927 5926 5926 5925 5924 5923 5922 5921 5920 5918 5917 5916 5914 5913 5911 5910 5909 5907 5906 5905 5904 5903 5902 5902 5901 5900 5899 5899 5898 5898 5897 5897 5897 5897 5897 5897 5897
5928 5928 5928 5928 5928 5928 5928 5928 5927 5927 5926 5925 5923 5922 5921 5920 5919 5918 5916 5915 5913 5912 5910 5909 5908 5907 5906 5905 5904 5903 5902 5901 5901 5900 5900 5899 5899 5898 5898 5898 5898 5898 5898
5929 5929 5929 5929 5929 5929 5929 5928 5928 5928 5927 5926 5925 5923 5922 5921 5920 5919 5918 5916 5914 5913 5911 5910 5909 5908 5907 5906 5905 5904 5903 5903 5902 5901 5901 5900 5900 5899 5899 5898 5898 5898 5898
5929 5930 5930 5930 5930 5930 5929 5929 5929 5928 5927 5926 5925 5924 5923 5922 5921 5920 5919 5917 5916 5914 5913 5911 5910 5909 5908 5907 5906 5905 5904 5904 5903 5902 5902 5901 5901 5900 5900 5899 5898 5898 5898
5930 5930 5930 5930 5930 5930 5930 5929 5929 5928 5928 5927 5926 5925 5924 5923 5921 5920 5919 5918 5917 5915 5913 5912 5911 5909 5908 5907 5907 5906 5905 5904 5903 5903 5902 5902 5901 5901 5900 5899 5899 5898 5898
5931 5930 5930 5930 5930 5930 5929 5929 5929 5928 5928 5927 5926 5925 5924 5923 5922 5921 5919 5918 5917 5916 5914 5913 5911 5910 5909 5908 5907 5906 5905 5905 5904 5903 5902 5902 5901 5901 5900 5900 5899 5898 5898
5931 5930 5930 5930 5930 5929 5929 5928 5928 5928 5927 5927 5926 5925 5924 5923 5922 5921 5920 5918 5917 5916 5915 5913 5912 5910 5909 5908 5907 5906 5905 5905 5904 5903 5902 5902 5901 5901 5900 5900 5899 5899 5898
5931 5930 5930 5929 5929 5929 5928 5928 5927 5927 5926 5926 5925 5924 5923 5922 5921 5920 5919 5918 5917 5916 5915 5913 5912 5911 5909 5908 5907 5906 5905 5904 5903 5903 5902 5901 5901 5900 5899 5899 5899 5898 5898
5930 5929 5929 5928 5928 5927 5927 5926 5925 5925 5924 5924 5924 5923 5922 5921 5920 5919 5918 5917 5916 5915 5914 5913 5912 5910 5909 5908 5907 5905 5904 5903 5902 5902 5901 5900 5900 5899 5898 5898 5898 5897 5897
5928 5928 5927 5927 5927 5926 5925 5924 5924 5923 5923 5922 5921 5921 5920 5919 5918 5917 5916 5915 5914 5913 5912 5911 5910 5909 5908 5907 5906 5905 5903 5902 5902 5901 5900 5899 5898 5898 5897 5897 5896 5896 5896
5926 5926 5925 5925 5925 5924 5923 5923 5922 5921 5920 5920 5919 5918 5918 5917 5916 5915 5914 5913 5912 5911 5910 5909 5909 5908 5907 5906 5905 5904 5902 5902 5901 5900 5899 5897 5897 5896 5895 5895 5894 5894 5894
5923 5923 5923 5923 5922 5922 5921 5920 5920 5919 5918 5917 5917 5916 5915 5914 5913 5912 5911 5910 5909 5908 5908 5907 5906 5905 5905 5904 5903 5902 5901 5900 5899 5898 5897 5896 5895 5894 5893 5893 5892 5892 5891
5921 5921 5921 5921 5920 5920 5919 5918 5917 5917 5916 5915 5914 5913 5912 5911 5911 5910 5909 5907 5906 5905 5905 5904 5903 5903 5902 5901 5901 5900 5899 5898 5897 5896 5896 5894 5893 5892 5891 5890 5889 5889 5889
5919 5919 5918 5918 5917 5917 5916 5915 5914 5914 5913 5912 5911 5910 5909 5908 5907 5907 5906 5904 5903 5902 5901 5901 5900 5899 5898 5898 5897 5897 5896 5895 5894 5894 5893 5892 5890 5889 5888 5887 5886 5886 5885
5916 5915 5915 5914 5914 5913 5912 5911 5911 5910 5909 5908 5908 5906 5905 5904 5903 5902 5901 5900 5899 5898 5897 5896 5895 5895 5894 5893 5893 5892 5892 5891 5890 5890 5889 5889 5887 5886 5885 5884 5883 5882 5881
5911 5911 5910 5910 5909 5908 5907 5906 5905 5905 5904 5903 5902 5901 5900 5899 5898 5897 5896 5895 5893 5893 5892 5891 5890 5889 5888 5887 5887 5887 5886 5885 5885 5884 5884 5884 5883 5882 5882 5881 5880 5878 5877
5905 5905 5905 5904 5903 5902 5901 5900 5899 5898 5897 5897 5896 5895 5895 5893 5892 5891 5890 5889 5888 5886 5885 5884 5883 5882 5882 5881 5880 5880 5880 5879 5879 5878 5878 5878 5878 5878 5877 5876 5875 5874 5873
5898 5898 5898 5897 5897 5896 5895 5893 5892 5891 5890 5889 5888 5888 5887 5887 5885 5884 5883 5882 5880 5879 5878 5877 5876 5875 5874 5873 5872 5872 5872 5872 5872 5871 5871 5871 5871 5871 5871 5871 5870 5869 5868
5891 5890 5890 5889 5888 5888 5887 5885 5884 5883 5882 5881 5880 5880 5879 5879 5877 5876 5875 5873 5872 5871 5870 5868 5867 5866 5865 5864 5863 5863 5864 5864 5864 5864 5864 5864 5864 5863 5863 5864 5863 5862 5861
5882 5882 5881 5880 5879 5878 5877 5876 5875 5874 5873 5872 5871 5870 5870 5870 5869 5868 5866 5865 5863 5862 5861 5859 5859 5857 5856 5854 5854 5854 5855 5855 5855 5855 5856 5856 5856 5855 5855 5855 5855 5855 5854
5872 5872 5872 5871 5869 5868 5868 5867 5866 5865 5864 5864 5863 5862 5860 5860 5859 5858 5857 5855 5854 5852 5851 5851 5850 5848 5847 5845 5845 5845 5846 5847 5847 5847 5847 5848 5848 5847 5846 5846 5846 5846 5846
5864 5863 5863 5862 5860 5859 5858 5857 5857 5856 5855 5855 5854 5853 5852 5850 5849 5848 5847 5845 5844 5842 5841 5841 5840 5839 5837 5836 5835 5835 5836 5838 5837 5838 5839 5839 5839 5839 5838 5837 5837 5836 5836
5855 5854 5853 5852 5851 5850 5849 5848 5847 5846 5845 5845 5844 5843 5841 5840 5839 5838 5837 5835 5834 5833 5833 5832 5830 5828 5827 5826 5825 5825 5826 5828 5829 5830 5829 5829 5830 5830 5830 5829 5828 5828 5826
5846 5845 5844 5843 5841 5840 5839 5838 5836 5836 5835 5835 5834 5832 5831 5829 5828 5827 5826 5825 5824 5824 5823 5822 5821 5819 5818 5817 5816 5816 5817 5817 5819 5821 5822 5820 5821 5822 5821 5820 5819 5819 5818
5837 5835 5834 5833 5832 5830 5829 5827 5826 5825 5824 5823 5822 5821 5820 5819 5817 5816 5816 5815 5815 5814 5813 5812 5810 5809 5808 5807 5807 5807 5807 5808 5809 5811 5814 5814 5813 5813 5812 5812 5811 5811 5810
5828 5827 5825 5824 5823 5821 5819 5817 5816 5814 5813 5811 5810 5809 5808 5807 5806 5806 5805 5804 5804 5803 5803 5802 5801 5800 5799 5798 5797 5797 5798 5799 5800 5801 5804 5805 5805 5804 5804 5803 5803 5802 5802